When you browse on this site, cookies collect data to enhance your experience and personalize the content and advertising you see.
Visit our Privacy Policy to learn more. By continuing to use the site, you agree to this use of cookies and data.
  • în România
  • Lista ţărilor
  • Pe 7 zile
  • Temperatura apei
  • Meteo pe hartă
  • Widget-uri
  • user-avatar
    Intrare

    Meteo pe oră la Salgotarjan

    Astăzi, 23 Octombrie, Miercuri

    Timp Temperatura Precipitaţii Vânt Presiune Umiditate
    00:00 +13°C° 0 mm 0 m/s 736 mmHg 83%
    01:00 +13°C° 0 mm 0 m/s 736 mmHg 84%
    02:00 +13°C° 0 mm 0 m/s 736 mmHg 85%
    03:00 +13°C° 0 mm 0 m/s 736 mmHg 85%
    04:00 +12°C° 0 mm 0 m/s 736 mmHg 86%
    05:00 +13°C° 0 mm 0 m/s 736 mmHg 86%
    06:00 +13°C° 0 mm 0 m/s 736 mmHg 85%
    07:00 +14°C° 0 mm 1 m/s 736 mmHg 85%
    08:00 +16°C° 0 mm 1 m/s 736 mmHg 76%
    09:00 +19°C° 0 mm 1 m/s 736 mmHg 67%
    10:00 +21°C° 0 mm 1 m/s 736 mmHg 58%
    11:00 +22°C° 0 mm 1 m/s 736 mmHg 54%
    12:00 +23°C° 0 mm 1 m/s 735 mmHg 50%
    13:00 +24°C° 0 mm 2 m/s 735 mmHg 46%
    14:00 +23°C° 0 mm 1 m/s 735 mmHg 51%
    15:00 +22°C° 0 mm 1 m/s 734 mmHg 55%
    16:00 +21°C° 0 mm 1 m/s 734 mmHg 60%
    17:00 +19°C° 0 mm 1 m/s 734 mmHg 64%
    18:00 +18°C° 0 mm 1 m/s 733 mmHg 69%
    19:00 +16°C° 0 mm 1 m/s 733 mmHg 74%
    20:00 +15°C° 0 mm 1 m/s 733 mmHg 75%
    21:00 +15°C° 0 mm 1 m/s 733 mmHg 77%
    22:00 +15°C° 0 mm 1 m/s 733 mmHg 79%
    23:00 +14°C° 0 mm 1 m/s 733 mmHg 80%

    Mâine, 24 Octombrie, Joi

    Timp Temperatura Precipitaţii Vânt Presiune Umiditate
    00:00 +14°C° 0 mm 1 m/s 733 mmHg 82%
    01:00 +13°C° 0 mm 1 m/s 733 mmHg 83%
    02:00 +13°C° 0 mm 1 m/s 732 mmHg 84%
    03:00 +13°C° 0 mm 1 m/s 732 mmHg 85%
    04:00 +12°C° 0 mm 1 m/s 732 mmHg 86%
    05:00 +12°C° 0 mm 1 m/s 732 mmHg 86%
    06:00 +12°C° 0 mm 1 m/s 732 mmHg 85%
    07:00 +12°C° 0 mm 1 m/s 732 mmHg 85%
    08:00 +15°C° 0 mm 1 m/s 732 mmHg 75%
    09:00 +18°C° 0 mm 1 m/s 732 mmHg 65%
    10:00 +19°C° 0 mm 2 m/s 732 mmHg 55%
    11:00 +20°C° 0 mm 2 m/s 732 mmHg 50%
    12:00 +21°C° 0 mm 2 m/s 732 mmHg 46%
    13:00 +23°C° 0 mm 2 m/s 731 mmHg 42%
    14:00 +21°C° 0 mm 2 m/s 731 mmHg 45%
    15:00 +20°C° 0 mm 2 m/s 730 mmHg 47%
    16:00 +20°C° 0 mm 1 m/s 730 mmHg 50%
    17:00 +18°C° 0 mm 1 m/s 730 mmHg 53%
    18:00 +16°C° 0 mm 1 m/s 730 mmHg 56%
    19:00 +15°C° 0 mm 1 m/s 730 mmHg 58%
    20:00 +15°C° 0 mm 1 m/s 731 mmHg 59%
    21:00 +14°C° 0 mm 1 m/s 731 mmHg 61%
    22:00 +14°C° 0 mm 1 m/s 731 mmHg 62%
    23:00 +13°C° 0 mm 1 m/s 731 mmHg 63%

    Poimâine, 25 Octombrie, Vineri

    Timp Temperatura Precipitaţii Vânt Presiune Umiditate
    00:00 +13°C° 0 mm 1 m/s 731 mmHg 65%
    01:00 +12°C° 0 mm 0 m/s 731 mmHg 66%
    02:00 +11°C° 0 mm 0 m/s 731 mmHg 67%
    03:00 +11°C° 0 mm 0 m/s 731 mmHg 67%
    04:00 +11°C° 0 mm 0 m/s 732 mmHg 68%
    05:00 +11°C° 0 mm 0 m/s 732 mmHg 68%
    06:00 +11°C° 0 mm 0 m/s 732 mmHg 67%
    07:00 +11°C° 0 mm 0 m/s 732 mmHg 67%
    08:00 +13°C° 0 mm 0 m/s 733 mmHg 60%
    09:00 +16°C° 0 mm 0 m/s 734 mmHg 52%
    10:00 +18°C° 0 mm 0 m/s 734 mmHg 45%
    11:00 +21°C° 0 mm 1 m/s 734 mmHg 43%
    12:00 +22°C° 0 mm 1 m/s 734 mmHg 41%
    13:00 +23°C° 0 mm 1 m/s 735 mmHg 40%
    14:00 +22°C° 0 mm 1 m/s 734 mmHg 45%
    15:00 +20°C° 0 mm 1 m/s 734 mmHg 50%
    16:00 +17°C° 0 mm 0 m/s 734 mmHg 55%
    17:00 +16°C° 0 mm 0 m/s 734 mmHg 59%
    18:00 +14°C° 0 mm 0 m/s 734 mmHg 63%
    19:00 +13°C° 0 mm 0 m/s 734 mmHg 67%
    20:00 +14°C° 0 mm 1 m/s 734 mmHg 69%
    21:00 +13°C° 0 mm 1 m/s 734 mmHg 70%
    22:00 +13°C° 0 mm 1 m/s 735 mmHg 71%
    23:00 +13°C° 0 mm 1 m/s 734 mmHg 72%

    26 Octombrie, Sâmbătă

    Timp Temperatura Precipitaţii Vânt Presiune Umiditate
    00:00 +12°C° 0 mm 1 m/s 734 mmHg 74%
    01:00 +11°C° 0 mm 0 m/s 734 mmHg 75%
    02:00 +10°C° 0 mm 0 m/s 734 mmHg 76%
    03:00 +10°C° 0 mm 0 m/s 734 mmHg 78%
    04:00 +10°C° 0 mm 0 m/s 734 mmHg 79%
    05:00 +10°C° 0 mm 0 m/s 734 mmHg 79%
    06:00 +10°C° 0 mm 0 m/s 734 mmHg 79%
    07:00 +10°C° 0 mm 0 m/s 734 mmHg 79%
    08:00 +12°C° 0 mm 0 m/s 734 mmHg 70%
    09:00 +14°C° 0 mm 0 m/s 735 mmHg 62%
    10:00 +18°C° 0 mm 1 m/s 735 mmHg 53%
    11:00 +19°C° 0 mm 1 m/s 735 mmHg 51%
    12:00 +19°C° 0 mm 2 m/s 735 mmHg 49%
    13:00 +20°C° 0 mm 2 m/s 734 mmHg 47%
    14:00 +19°C° 0 mm 2 m/s 734 mmHg 51%
    15:00 +19°C° 0 mm 1 m/s 734 mmHg 55%
    16:00 +18°C° 0 mm 1 m/s 733 mmHg 59%
    17:00 +16°C° 0 mm 1 m/s 733 mmHg 63%
    18:00 +15°C° 0 mm 1 m/s 733 mmHg 67%
    19:00 +14°C° 0 mm 1 m/s 733 mmHg 72%
    20:00 +14°C° 0 mm 1 m/s 733 mmHg 73%
    21:00 +12°C° 0 mm 0 m/s 733 mmHg 74%
    22:00 +12°C° 0 mm 0 m/s 733 mmHg 76%
    23:00 +12°C° 0 mm 0 m/s 733 mmHg 77%

    27 Octombrie, Duminică

    Timp Temperatura Precipitaţii Vânt Presiune Umiditate
    00:00 +11°C° 0 mm 0 m/s 733 mmHg 79%
    01:00 +11°C° 0 mm 0 m/s 733 mmHg 80%
    02:00 +11°C° 0 mm 0 m/s 732 mmHg 82%
    03:00 +10°C° 0 mm 0 m/s 732 mmHg 83%
    04:00 +10°C° 0 mm 0 m/s 732 mmHg 84%
    05:00 +10°C° 0 mm 0 m/s 732 mmHg 84%
    06:00 +10°C° 0 mm 0 m/s 732 mmHg 84%
    07:00 +10°C° 0 mm 0 m/s 732 mmHg 84%
    08:00 +13°C° 0 mm 1 m/s 732 mmHg 76%
    09:00 +15°C° 0 mm 1 m/s 733 mmHg 68%
    10:00 +17°C° 0 mm 2 m/s 733 mmHg 61%
    11:00 +18°C° 0 mm 3 m/s 733 mmHg 57%
    12:00 +19°C° 0 mm 4 m/s 733 mmHg 54%
    13:00 +19°C° 0 mm 4 m/s 733 mmHg 51%
    14:00 +19°C° 0 mm 4 m/s 733 mmHg 54%
    15:00 +18°C° 0 mm 4 m/s 733 mmHg 57%
    16:00 +17°C° 0 mm 4 m/s 733 mmHg 59%
    17:00 +15°C° 0 mm 4 m/s 733 mmHg 60%
    18:00 +14°C° 0 mm 4 m/s 733 mmHg 62%
    19:00 +14°C° 0 mm 4 m/s 734 mmHg 63%
    20:00 +13°C° 0 mm 3 m/s 734 mmHg 58%
    21:00 +12°C° 0 mm 3 m/s 734 mmHg 54%
    22:00 +12°C° 0 mm 3 m/s 735 mmHg 50%
    23:00 +12°C° 0 mm 2 m/s 735 mmHg 56%

    28 Octombrie, Luni

    Timp Temperatura Precipitaţii Vânt Presiune Umiditate
    00:00 +10°C° 0 mm 2 m/s 734 mmHg 61%
    01:00 +10°C° 0 mm 1 m/s 734 mmHg 67%
    02:00 +10°C° 0 mm 1 m/s 734 mmHg 68%
    03:00 +10°C° 0 mm 1 m/s 734 mmHg 69%
    04:00 +8°C° 0 mm 0 m/s 734 mmHg 69%
    05:00 +8°C° 0 mm 0 m/s 734 mmHg 68%
    06:00 +8°C° 0 mm 0 m/s 734 mmHg 67%
    07:00 +8°C° 0 mm 0 m/s 734 mmHg 66%
    08:00 +9°C° 0 mm 0 m/s 734 mmHg 63%
    09:00 +10°C° 0 mm 1 m/s 734 mmHg 61%
    10:00 +11°C° 0 mm 1 m/s 734 mmHg 58%
    11:00 +11°C° 0 mm 1 m/s 734 mmHg 57%
    12:00 +10°C° 0 mm 2 m/s 734 mmHg 55%
    13:00 +10°C° 0 mm 2 m/s 734 mmHg 54%
    14:00 +9°C° 0 mm 2 m/s 733 mmHg 56%
    15:00 +9°C° 0 mm 2 m/s 733 mmHg 58%
    16:00 +8°C° 0 mm 2 m/s 733 mmHg 60%
    17:00 +8°C° 0 mm 2 m/s 733 mmHg 63%
    18:00 +8°C° 0 mm 1 m/s 733 mmHg 66%
    19:00 +7°C° 0 mm 1 m/s 733 mmHg 70%
    20:00 +7°C° 0 mm 1 m/s 733 mmHg 70%
    21:00 +7°C° 0 mm 1 m/s 733 mmHg 70%
    22:00 +6°C° 0 mm 0 m/s 733 mmHg 70%
    23:00 +6°C° 0 mm 0 m/s 733 mmHg 70%
    Arată mai mult